DW8816 Weather Reports


Display with metric or nautical units.
time (UTC)temp
F
wind
direction
speed
MPH
gust
MPH
rain 1hr
in
rain 24hr
in
rain mn
in
humidity
%
barometer
mb
20180525201004 62 0 0.0 2.0 0.00 0.02 0.02 85 1018.2
20180525200004 62 0 0.0 0.0 0.00 0.02 0.02 84 1018.0
20180525195004 63 330 1.0 3.0 0.00 0.02 0.02 84 1018.0
20180525194004 63 330 1.0 2.0 0.00 0.02 0.02 83 1018.0
20180525193005 64 329 1.0 3.0 0.00 0.02 0.02 83 1018.1
20180525192004 64 328 2.0 4.0 0.00 0.02 0.02 82 1017.9
20180525191004 64 326 2.0 4.0 0.00 0.02 0.02 81 1017.9
20180525190005 64 330 2.0 5.0 0.00 0.02 0.02 80 1017.9
20180525185004 65 320 2.0 4.0 0.00 0.02 0.02 80 1017.7
20180525184004 65 327 3.0 6.0 0.00 0.02 0.02 79 1017.7
20180525183005 65 333 2.0 6.0 0.00 0.02 0.02 79 1017.7
20180525182004 65 328 2.0 5.0 0.00 0.02 0.02 79 1017.7
20180525181004 66 312 2.0 5.0 0.00 0.02 0.02 78 1017.6
20180525180008 66 319 2.0 5.0 0.00 0.02 0.02 78 1017.6
20180525175004 65 325 1.0 4.0 0.00 0.02 0.02 79 1017.5
20180525174004 65 317 1.0 4.0 0.00 0.02 0.02 79 1017.4
20180525173004 65 313 1.0 3.0 0.00 0.02 0.02 78 1017.4
20180525172004 65 332 1.0 4.0 0.00 0.02 0.02 79 1017.5
20180525171005 65 331 0.0 4.0 0.00 0.02 0.02 78 1017.4
20180525170005 65 267 1.0 2.0 0.00 0.02 0.02 79 1017.3
20180525165004 66 324 2.0 4.0 0.00 0.02 0.02 78 1017.3
20180525164005 66 298 1.0 4.0 0.00 0.02 0.02 79 1017.3
20180525163005 66 301 2.0 3.0 0.00 0.02 0.02 79 1017.3
20180525162004 66 327 2.0 4.0 0.00 0.02 0.02 78 1017.2
20180525161004 66 280 2.0 6.0 0.00 0.02 0.02 79 1017.4
20180525160004 66 286 2.0 4.0 0.00 0.02 0.02 78 1017.3
20180525155004 65 256 2.0 6.0 0.00 0.02 0.02 79 1017.4
20180525154004 65 247 1.0 7.0 0.00 0.02 0.02 80 1017.5
20180525153004 65 258 2.0 4.0 0.00 0.02 0.02 81 1017.6
20180525152007 64 253 2.0 4.0 0.00 0.02 0.02 80 1017.7
20180525151004 64 254 2.0 4.0 0.00 0.02 0.02 80 1017.6
20180525150005 64 256 2.0 5.0 0.00 0.02 0.02 79 1017.7
20180525145004 64 264 1.0 4.0 0.00 0.02 0.02 80 1017.5
20180525144004 64 264 1.0 4.0 0.00 0.02 0.02 80 1017.4
20180525143005 64 256 1.0 4.0 0.00 0.02 0.02 80 1017.4
20180525142004 64 247 1.0 4.0 0.00 0.02 0.02 80 1017.5
20180525141004 64 241 1.0 4.0 0.00 0.02 0.02 80 1017.5
20180525140008 64 260 2.0 4.0 0.00 0.02 0.02 81 1017.4
20180525135004 63 242 1.0 7.0 0.00 0.03 0.02 81 1017.5
20180525134004 64 0 0.0 4.0 0.00 0.03 0.02 80 1017.4
20180525133005 64 226 1.0 3.0 0.00 0.03 0.02 80 1017.3
20180525132004 63 235 0.0 4.0 0.00 0.03 0.02 81 1017.3
20180525131004 63 224 1.0 2.0 0.00 0.03 0.02 81 1017.3
20180525130004 63 223 0.0 3.0 0.00 0.03 0.02 84 1017.4
20180525125004 62 224 1.0 2.0 0.00 0.03 0.02 82 1017.4
20180525124004 63 215 0.0 4.0 0.00 0.03 0.02 82 1017.3
20180525123005 63 253 1.0 3.0 0.00 0.03 0.02 84 1017.3
20180525122004 62 257 1.0 3.0 0.00 0.03 0.02 83 1017.3
20180525121004 62 267 1.0 3.0 0.00 0.03 0.02 81 1017.3
20180525120005 62 268 2.0 6.0 0.00 0.03 0.02 82 1017.2
20180525115004 62 250 2.0 5.0 0.00 0.03 0.02 82 1017.2
20180525114004 62 252 2.0 6.0 0.00 0.03 0.02 83 1017.2
20180525113005 62 237 1.0 4.0 0.00 0.03 0.02 83 1017.0
20180525112004 61 246 1.0 3.0 0.00 0.03 0.02 82 1017.0
20180525111004 62 271 1.0 6.0 0.00 0.03 0.02 83 1017.0
20180525110005 61 261 2.0 4.0 0.00 0.03 0.02 85 1017.0
20180525105004 61 326 0.0 4.0 0.00 0.03 0.02 85 1017.0
20180525104004 60 339 1.0 3.0 0.00 0.03 0.02 84 1017.0
20180525103005 61 341 1.0 4.0 0.00 0.03 0.02 85 1017.0
20180525102004 61 337 1.0 4.0 0.00 0.03 0.02 85 1017.1
20180525101004 60 254 1.0 4.0 0.00 0.03 0.02 85 1017.1
20180525100005 60 239 1.0 3.0 0.00 0.03 0.02 86 1017.1
20180525095007 60 0 0.0 3.0 0.00 0.03 0.02 86 1017.1
20180525094004 59 0 0.0 0.0 0.00 0.03 0.02 86 1017.1
20180525093005 59 0 0.0 0.0 0.00 0.03 0.02 87 1017.1
20180525092004 59 0 0.0 2.0 0.00 0.03 0.02 88 1017.1
20180525091004 58 334 1.0 2.0 0.00 0.03 0.02 87 1017.0
20180525090007 58 329 1.0 4.0 0.00 0.03 0.02 88 1017.0
20180525085004 58 316 2.0 3.0 0.00 0.03 0.02 88 1016.9
20180525084004 58 316 1.0 5.0 0.00 0.03 0.02 89 1017.0
20180525083004 58 306 1.0 3.0 0.00 0.03 0.02 88 1017.0
20180525082004 58 323 1.0 4.0 0.00 0.03 0.02 89 1017.0
20180525081004 57 339 2.0 3.0 0.00 0.03 0.02 90 1016.9
20180525080004 57 320 2.0 6.0 0.00 0.03 0.02 90 1016.9
20180525075004 57 334 2.0 5.0 0.00 0.03 0.02 91 1016.9
20180525074004 57 328 2.0 4.0 0.00 0.03 0.02 90 1016.8
20180525073005 56 324 2.0 4.0 0.00 0.04 0.02 91 1016.9
20180525072004 56 315 2.0 4.0 0.00 0.04 0.02 91 1016.9
20180525071004 56 335 2.0 5.0 0.00 0.04 0.02 91 1016.8
20180525070004 56 326 2.0 5.0 0.00 0.04 0.02 91 1016.9
20180525065003 55 334 3.0 5.0 0.00 0.04 0.02 92 1016.8
20180525064003 55 337 2.0 5.0 0.01 0.04 0.02 92 1016.7
20180525063004 55 353 2.0 5.0 0.01 0.04 0.02 92 1016.6
20180525062004 55 355 1.0 4.0 0.01 0.04 0.02 92 1016.5
20180525061004 55 355 2.0 4.0 0.01 0.04 0.02 92 1016.5
20180525060005 55 353 2.0 6.0 0.01 0.04 0.02 92 1016.5
20180525055004 55 353 2.0 6.0 0.02 0.04 0.02 92 1016.6
20180525054004 55 355 2.0 5.0 0.01 0.03 0.01 92 1016.6
20180525053004 55 323 2.0 4.0 0.01 0.03 0.01 92 1016.6
20180525052003 55 322 2.0 4.0 0.01 0.04 0.01 92 1016.5
20180525051004 55 329 3.0 5.0 0.01 0.04 0.01 92 1016.5
20180525050004 55 330 2.0 5.0 0.01 0.04 0.01 92 1016.6
20180525045003 55 331 3.0 8.0 0.00 0.03 0.00 92 1016.5
20180525044003 55 339 3.0 6.0 0.00 0.03 0.00 92 1016.5
20180525043004 55 334 3.0 6.0 0.00 0.03 0.00 92 1016.4
20180525042003 55 334 2.0 6.0 0.00 0.03 0.00 92 1016.4
20180525041003 55 340 3.0 7.0 0.00 0.04 0.00 92 1016.4
20180525040004 55 322 2.0 5.0 0.00 0.04 0.00 92 1016.5
20180525035004 55 322 2.0 6.0 0.00 0.05 0.00 92 1016.5
20180525034004 55 333 2.0 6.0 0.00 0.07 0.00 92 1016.5
20180525033004 55 338 3.0 6.0 0.00 0.07 0.00 92 1016.6
20180525032004 55 330 3.0 6.0 0.00 0.07 0.00 92 1016.5
20180525031003 55 335 2.0 9.0 0.00 0.07 0.00 91 1016.5
20180525030005 55 330 3.0 6.0 0.00 0.07 0.00 91 1016.5
20180525025004 55 341 3.0 8.0 0.00 0.07 0.00 91 1016.6
20180525024003 55 340 4.0 9.0 0.00 0.07 0.00 91 1016.6
20180525023004 55 340 5.0 9.0 0.00 0.07 0.00 90 1016.6
20180525022004 55 339 5.0 11.0 0.00 0.07 0.00 90 1016.6
20180525021003 55 345 6.0 10.0 0.00 0.07 0.00 89 1016.7
20180525020004 55 339 5.0 12.0 0.00 0.07 0.00 89 1016.7
20180525015004 55 344 5.0 12.0 0.00 0.07 0.00 89 1016.6
20180525014003 56 347 5.0 10.0 0.00 0.07 0.00 88 1016.6
20180525013004 56 354 4.0 9.0 0.00 0.07 0.00 89 1016.6
20180525012004 56 349 5.0 13.0 0.00 0.07 0.00 88 1016.7
20180525011004 56 346 5.0 11.0 0.00 0.08 0.00 88 1016.8
20180525010004 56 342 5.0 13.0 0.00 0.08 0.00 88 1016.8
20180525005004 56 338 5.0 11.0 0.00 0.08 0.00 87 1016.9
20180525004003 56 340 5.0 10.0 0.00 0.08 0.00 87 1017.0
20180525003004 56 339 4.0 10.0 0.00 0.08 0.00 87 1017.0
20180525002004 56 335 5.0 8.0 0.00 0.08 0.00 88 1017.0
20180525001003 56 343 5.0 11.0 0.00 0.08 0.00 88 1017.1
20180525000005 56 347 4.0 10.0 0.00 0.08 0.00 88 1017.1
20180524235004 56 353 5.0 12.0 0.00 0.08 0.00 88 1017.2
20180524234003 56 1 4.0 11.0 0.00 0.08 0.00 87 1017.1
20180524233004 56 341 5.0 11.0 0.00 0.08 0.00 87 1017.2
20180524232004 56 355 6.0 13.0 0.00 0.08 0.00 87 1017.4
20180524231003 57 349 6.0 13.0 0.00 0.08 0.00 86 1017.3
20180524230004 57 345 5.0 12.0 0.00 0.08 0.00 85 1017.3
20180524225004 57 345 4.0 9.0 0.00 0.08 0.08 86 1017.5
20180524224003 57 351 4.0 11.0 0.00 0.08 0.08 86 1017.6
20180524223004 57 344 4.0 11.0 0.00 0.08 0.08 86 1017.7
20180524222004 57 353 4.0 9.0 0.00 0.08 0.08 85 1017.7
20180524221006 58 344 4.0 9.0 0.00 0.08 0.08 85 1017.7
20180524220005 58 343 4.0 10.0 0.00 0.08 0.08 84 1017.7
20180524215004 59 350 5.0 10.0 0.00 0.08 0.08 84 1017.7
20180524214003 60 345 4.0 10.0 0.00 0.08 0.08 83 1017.8
20180524213004 60 344 3.0 7.0 0.00 0.08 0.08 82 1017.7
20180524212004 61 359 3.0 8.0 0.00 0.08 0.08 80 1017.8
20180524211003 61 358 3.0 8.0 0.00 0.08 0.08 79 1017.6
20180524210004 61 345 3.0 6.0 0.00 0.08 0.08 77 1017.5
20180524205003 62 354 2.0 6.0 0.00 0.08 0.08 77 1017.6
20180524204003 62 12 2.0 6.0 0.00 0.08 0.08 77 1017.5
20180524203004 62 14 1.0 5.0 0.00 0.08 0.08 80 1017.5
20180524202004 61 0 0.0 4.0 0.00 0.08 0.08 84 1017.5